Location: Newark
(34.9500°N, 139.9667°E)
Time: 15:29:44
(UTC+00:00)

Transit 2A Rocket - All Passes

Search period start: 05 December 2019 00:00
Search period end: 15 December 2019 00:00
Orbit: 594 x 909 km, 66.7° (Epoch: 05 December)

Date Brightness Start Highest point End Pass type
(mag) Time Alt. Az. Time Alt. Az. Time Alt. Az.
05 Dec - 08:01:40 10° SSW 08:06:26 80° WNW 08:10:53 10° NNE visible
05 Dec - 16:47:56 10° N 16:51:59 32° ENE 16:56:16 10° ESE night (unlit)
05 Dec - 18:30:46 10° WNW 18:34:20 22° WSW 18:38:05 10° SSW night (unlit)
06 Dec - 07:19:21 10° S 07:23:57 50° ESE 07:28:17 10° NE daylight
06 Dec - 09:04:03 10° W 09:06:41 15° NW 09:09:15 10° NNW visible
06 Dec - 16:06:11 10° N 16:09:18 18° NE 16:12:31 10° E night (unlit)
06 Dec - 17:47:37 10° NW 17:51:56 43° WSW 17:56:34 10° S night (unlit)
07 Dec - 06:37:39 10° SSE 06:41:33 25° ESE 06:45:15 10° NE daylight
07 Dec - 08:20:01 10° WSW 08:23:57 27° WNW 08:27:43 10° N visible
07 Dec - 17:04:55 10° NNW 17:09:28 85° WSW 17:14:23 10° SSE night (unlit)
08 Dec - 05:57:06 10° SE 05:59:13 13° ESE 06:01:17 10° E daylight
08 Dec - 07:36:46 10° SW 07:41:21 51° WNW 07:45:39 10° NNE daylight
08 Dec - 16:22:33 10° NNW 16:26:56 49° ENE 16:31:40 10° SE night (unlit)
08 Dec - 18:06:35 10° WNW 18:09:07 14° WSW 18:11:45 10° SW night (unlit)
09 Dec - 06:54:06 10° SSW 06:58:49 81° ESE 07:03:15 10° NNE daylight
09 Dec - 15:40:30 10° N 15:44:20 26° ENE 15:48:22 10° ESE night (unlit)
09 Dec - 17:22:50 10° NW 17:26:46 28° WSW 17:30:57 10° SSW night (unlit)
10 Dec - 06:11:58 10° S 06:16:22 39° ESE 06:20:31 10° NE daylight
10 Dec - 07:55:50 10° W 07:58:59 18° NW 08:02:03 10° N visible
10 Dec - 14:58:59 10° NNE 15:01:35 15° NE 15:04:17 10° E night (unlit)
10 Dec - 16:39:52 10° NW 16:44:21 55° WSW 16:49:11 10° S night (unlit)
11 Dec - 05:30:34 10° SSE 05:34:00 20° ESE 05:37:17 10° ENE daylight
11 Dec - 07:12:07 10° WSW 07:16:18 33° WNW 07:20:17 10° N daylight
11 Dec - 15:57:18 10° NNW 16:01:52 77° ENE 16:06:48 10° SSE night (unlit)
12 Dec - 06:29:05 10° SW 06:33:43 64° WNW 06:38:06 10° NNE daylight
12 Dec - 15:15:01 10° N 15:19:18 39° ENE 15:23:54 10° SE night (unlit)
12 Dec - 16:58:21 10° WNW 17:01:35 18° WSW 17:04:58 10° SSW night (unlit)
13 Dec - 05:46:36 10° SSW 05:51:13 63° ESE 05:55:35 10° NNE daylight
13 Dec - 07:32:15 10° WNW 07:34:04 12° NW 07:35:52 10° NNW daylight
13 Dec - 14:33:06 10° N 14:36:40 22° NE 14:40:23 10° ESE night (unlit)
13 Dec - 16:15:00 10° NW 16:19:11 35° WSW 16:23:44 10° S night (unlit)
14 Dec - 05:04:41 10° S 05:08:47 31° ESE 05:12:43 10° NE daylight
14 Dec - 06:47:44 10° WSW 06:51:17 22° NW 06:54:44 10° N daylight
14 Dec - 13:51:58 10° NNE 13:53:52 12° NE 13:55:50 10° ENE night (unlit)
14 Dec - 15:32:11 10° NNW 15:36:45 70° WSW 15:41:43 10° SSE night (unlit)
